Weather History for KHNZ - February, 2013

Change the Weather History Date:

Wednesday, February 20, 2013

  Actual Average (KTDF) Record (KTDF)
Temperature  
Mean Temperature 40 °F -  
Max Temperature 50 °F 55 °F 72 °F (1984)
Min Temperature 31 °F 32 °F 5 °F (2015)
Degree Days  
Heating Degree Days 24    
Moisture  
Dew Point 13 °F    
Average Humidity 36    
Maximum Humidity 69    
Minimum Humidity 17    
Precipitation  
Precipitation 0.00 in - - ()
Sea Level Pressure  
Sea Level Pressure 30.04 in    
Wind  
Wind Speed 6 mph (West)    
Max Wind Speed 14 mph    
Max Gust Speed 23 mph    
Visibility 10 miles    
Events      
Averages and records for this station are not official NWS values.
T = Trace of Precipitation, MM = Missing Value Source: NWS Daily Summary

Daily Weather History Graph

Daily Weather History Graph

Search for Another Location

Airport or City:

Trip Planner

Search our weather history database for the weather conditions in past years. The results will help you decide how hot, cold, wet, or windy it might be!

Date:

Astronomy

Feb. 20, 2013 Rise Set
Actual Time 6:55 AM EST 6:00 PM EST
Civil Twilight 6:29 AM EST 6:26 PM EST
Nautical Twilight 5:59 AM EST 6:56 PM EST
Astronomical Twilight 5:29 AM EST 7:26 PM EST
Moon 1:25 PM EST (2/20) 3:09 AM EST (2/20)
Length of Visible Light 11h 56m
Length of Day
11h 04m
Waxing Gibbous, 76% of the Moon is Illuminated
Feb 20
Waxing Gibbous
Feb 25
Full
Mar 4
Last Quarter
Mar 11
New
Mar 19
First Quarter

Hourly Weather History & Observations

Time (EST) Temp. Windchill Dew Point Humidity Pressure Visibility Wind Dir Wind Speed Gust Speed Precip Events Conditions
12:15 AM 39.6 °F 36.3 °F 30.0 °F 69% 29.95 in 10.0 mi West 4.6 mph - N/A   Clear
12:35 AM 39.4 °F 35.2 °F 27.3 °F 62% 29.95 in 10.0 mi West 5.8 mph - N/A   Clear
12:55 AM 39.4 °F 37.2 °F 26.1 °F 59% 29.96 in 10.0 mi West 3.5 mph - N/A   Clear
1:15 AM 38.3 °F 35.9 °F 24.6 °F 58% 29.96 in 10.0 mi West 3.5 mph - N/A   Clear
1:35 AM 37.4 °F 33.8 °F 23.7 °F 58% 29.97 in 10.0 mi West 4.6 mph - N/A   Clear
1:55 AM 37.2 °F 32.6 °F 20.8 °F 52% 29.97 in 10.0 mi West 5.8 mph - N/A   Clear
2:15 AM 37.9 °F 32.1 °F 18.1 °F 45% 29.98 in 10.0 mi West 8.1 mph - N/A   Clear
2:35 AM 37.4 °F 33.8 °F 17.4 °F 44% 29.98 in 10.0 mi WSW 4.6 mph - N/A   Clear
2:55 AM 36.3 °F 32.5 °F 16.9 °F 45% 29.98 in 10.0 mi WSW 4.6 mph - N/A   Clear
3:15 AM 36.5 °F 32.7 °F 16.2 °F 44% 29.98 in 10.0 mi WSW 4.6 mph - N/A   Clear
3:55 AM 35.2 °F 31.2 °F 16.5 °F 47% 29.98 in 10.0 mi WSW 4.6 mph - N/A   Clear
4:15 AM 34.9 °F 29.0 °F 16.2 °F 46% 29.99 in 10.0 mi WSW 6.9 mph - N/A   Clear
4:35 AM 34.9 °F 29.9 °F 16.2 °F 46% 29.99 in 10.0 mi WSW 5.8 mph - N/A   Clear
4:55 AM 34.2 °F 31.2 °F 16.3 °F 48% 30.00 in 10.0 mi WSW 3.5 mph - N/A   Clear
5:15 AM 33.8 °F - 15.8 °F 48% 30.01 in 10.0 mi Calm Calm - N/A   Clear
5:35 AM 32.9 °F 29.8 °F 16.2 °F 50% 30.02 in 10.0 mi WSW 3.5 mph - N/A   Clear
5:55 AM 32.5 °F 29.3 °F 16.2 °F 51% 30.02 in 10.0 mi WSW 3.5 mph - N/A   Clear
6:15 AM 32.2 °F 28.9 °F 15.6 °F 51% 30.03 in 10.0 mi WSW 3.5 mph - N/A   Clear
6:35 AM 32.2 °F - 14.9 °F 49% 30.03 in 10.0 mi Calm Calm - N/A   Clear
6:55 AM 32.0 °F 28.7 °F 14.9 °F 49% 30.03 in 10.0 mi WSW 3.5 mph - N/A   Clear
7:15 AM 31.3 °F - 15.8 °F 53% 30.04 in 10.0 mi Calm Calm - N/A   Clear
7:35 AM 31.3 °F 27.9 °F 17.6 °F 57% 30.04 in 10.0 mi WSW 3.5 mph - N/A   Clear
8:15 AM 35.1 °F 30.1 °F 16.9 °F 48% 30.06 in 10.0 mi WSW 5.8 mph - N/A   Clear
8:35 AM 36.0 °F 29.6 °F 15.3 °F 43% 30.06 in 10.0 mi SW 8.1 mph - N/A   Clear
8:55 AM 37.0 °F 31.0 °F 13.8 °F 39% 30.06 in 10.0 mi WSW 8.1 mph - N/A   Clear
9:35 AM 38.5 °F 33.4 °F 13.3 °F 36% 30.06 in 10.0 mi West 6.9 mph - N/A   Clear
9:55 AM 39.6 °F 34.0 °F 12.6 °F 33% 30.06 in 10.0 mi West 8.1 mph - N/A   Clear
10:15 AM 40.3 °F 33.9 °F 11.8 °F 31% 30.06 in 10.0 mi West 10.4 mph 17.3 mph N/A   Clear
10:35 AM 40.8 °F 34.1 °F 9.1 °F 27% 30.07 in 10.0 mi West 11.5 mph 18.4 mph N/A   Clear
10:55 AM 41.4 °F 34.7 °F 9.7 °F 27% 30.07 in 10.0 mi West 11.5 mph 17.3 mph N/A   Clear
11:15 AM 42.6 °F 37.2 °F 10.2 °F 27% 30.07 in 10.0 mi WNW 9.2 mph 18.4 mph N/A   Clear
11:35 AM 43.5 °F 38.9 °F 10.9 °F 27% 30.07 in 10.0 mi West 8.1 mph 17.3 mph N/A   Clear
11:55 AM 43.7 °F 38.1 °F 10.0 °F 25% 30.06 in 10.0 mi West 10.4 mph 17.3 mph N/A   Clear
12:15 PM 44.6 °F 38.4 °F 10.2 °F 25% 30.05 in 10.0 mi NW 12.7 mph 16.1 mph N/A   Clear
12:35 PM 44.6 °F 39.2 °F 9.9 °F 24% 30.04 in 10.0 mi NW 10.4 mph 17.3 mph N/A   Clear
12:55 PM 45.5 °F 39.2 °F 8.2 °F 22% 30.04 in 10.0 mi West 13.8 mph 23.0 mph N/A   Clear
1:15 PM 46.2 °F 40.8 °F 8.6 °F 22% 30.03 in 10.0 mi West 11.5 mph 19.6 mph N/A   Clear
1:35 PM 46.8 °F - 9.1 °F 22% 30.01 in 10.0 mi WSW 9.2 mph 19.6 mph N/A   Clear
1:55 PM 48.0 °F - 8.8 °F 20% 30.01 in 10.0 mi West 10.4 mph - N/A   Clear
2:15 PM 47.7 °F - 8.4 °F 20% 30.01 in 10.0 mi West 9.2 mph 18.4 mph N/A   Clear
2:35 PM 49.3 °F - 10.0 °F 21% 30.00 in 10.0 mi West 10.4 mph 16.1 mph N/A   Clear
2:55 PM 48.9 °F - 9.3 °F 20% 30.00 in 10.0 mi West 8.1 mph 17.3 mph N/A   Clear
3:15 PM 48.9 °F - 9.3 °F 20% 29.99 in 10.0 mi West 9.2 mph - N/A   Clear
3:35 PM 49.6 °F - 11.1 °F 21% 29.99 in 10.0 mi West 5.8 mph - N/A   Clear
3:55 PM 50.0 °F - 7.2 °F 18% 29.99 in 10.0 mi West 6.9 mph - N/A   Clear
4:15 PM 49.5 °F - 5.9 °F 17% 29.99 in 10.0 mi WNW 6.9 mph - N/A   Clear
4:35 PM 48.4 °F - 8.1 °F 20% 30.00 in 10.0 mi WNW 3.5 mph - N/A   Clear
4:55 PM 47.8 °F - 9.0 °F 21% 30.01 in 10.0 mi WNW 3.5 mph - N/A   Clear
5:15 PM 47.5 °F - 9.9 °F 22% 30.01 in 10.0 mi Calm Calm - N/A   Clear
5:35 PM 46.9 °F - 10.2 °F 23% 30.02 in 10.0 mi Calm Calm - N/A   Clear
5:55 PM 46.8 °F - 9.3 °F 22% 30.04 in 10.0 mi Calm Calm - N/A   Clear
6:15 PM 42.1 °F 40.2 °F 20.3 °F 42% 30.04 in 10.0 mi SW 3.5 mph - N/A   Clear
6:35 PM 43.5 °F - 14.2 °F 31% 30.05 in 10.0 mi Calm Calm - N/A   Clear
6:55 PM 40.6 °F 37.5 °F 16.3 °F 37% 30.06 in 10.0 mi WNW 4.6 mph - N/A   Clear
7:15 PM 43.5 °F 40.9 °F 9.7 °F 25% 30.07 in 10.0 mi NW 4.6 mph - N/A   Clear
7:35 PM 42.8 °F - 9.0 °F 25% 30.07 in 10.0 mi Calm Calm - N/A   Clear
7:55 PM 42.3 °F 39.4 °F 8.6 °F 25% 30.08 in 10.0 mi NNW 4.6 mph - N/A   Clear
8:15 PM 40.5 °F 37.3 °F 10.2 °F 29% 30.10 in 10.0 mi North 4.6 mph - N/A   Clear
8:35 PM 38.7 °F 34.3 °F 10.8 °F 32% 30.10 in 10.0 mi NNW 5.8 mph - N/A   Clear
8:55 PM 38.3 °F 33.9 °F 10.4 °F 32% 30.11 in 10.0 mi North 5.8 mph - N/A   Clear
9:15 PM 36.9 °F 33.1 °F 11.3 °F 35% 30.12 in 10.0 mi NNW 4.6 mph - N/A   Clear
9:35 PM 36.9 °F 30.1 °F 10.9 °F 34% 30.13 in 10.0 mi NNW 9.2 mph - N/A   Clear
9:55 PM 36.9 °F 31.4 °F 10.9 °F 34% 30.13 in 10.0 mi NNW 6.9 mph - N/A   Clear
10:15 PM 36.0 °F 29.6 °F 12.2 °F 38% 30.13 in 10.0 mi NNW 8.1 mph - N/A   Clear
10:35 PM 36.0 °F 30.3 °F 11.7 °F 37% 30.14 in 10.0 mi NNW 6.9 mph - N/A   Clear
10:55 PM 35.8 °F 30.1 °F 11.7 °F 37% 30.13 in 10.0 mi NNW 6.9 mph - N/A   Clear
11:15 PM 35.2 °F 31.2 °F 12.0 °F 38% 30.13 in 10.0 mi NNW 4.6 mph - N/A   Clear
11:35 PM 35.2 °F 27.6 °F 12.0 °F 38% 30.12 in 10.0 mi NNW 10.4 mph - N/A   Clear
11:55 PM 35.6 °F 29.2 °F 11.1 °F 36% 30.12 in 10.0 mi NNW 8.1 mph - N/A   Clear